| time (UTC) | temp F | wind direction | speed knots | gust knots | rain 1hr in | rain 24hr in | rain mn in | humidity % | barometer mb |
| 20260504120127 | 56 | 215 | 0.0 | 0.9 | 0.00 | 0.00 | 0.00 | 83 | 1017.2 |
| 20260504110555 | 54 | 180 | 1.7 | 2.6 | 0.00 | 0.00 | 0.00 | 86 | 1017.4 |
| 20260504100516 | 53 | 229 | 0.0 | 0.0 | 0.00 | 0.00 | 0.00 | 88 | 1016.7 |
| 20260504081904 | 50 | 323 | 0.0 | 0.0 | 0.00 | 0.00 | 0.00 | 93 | 1017.3 |
| 20260504081400 | 50 | 331 | 0.0 | 0.0 | 0.00 | 0.00 | 0.00 | 93 | 1017.2 |
| 20260504080856 | 50 | 337 | 0.0 | 0.0 | 0.00 | 0.00 | 0.00 | 93 | 1017.1 |
| 20260504080353 | 50 | 339 | 0.0 | 0.0 | 0.00 | 0.00 | 0.00 | 93 | 1017.2 |
| 20260504070321 | 51 | 328 | 0.0 | 0.0 | 0.00 | 0.00 | 0.00 | 91 | 1017.4 |
| 20260504060241 | 56 | 190 | 2.6 | 4.3 | 0.00 | 0.00 | 0.00 | 85 | 1017.2 |
| 20260504050709 | 52 | 1 | 0.0 | 0.0 | 0.00 | 0.00 | 0.00 | 88 | 1017.4 |
| 20260504050206 | 52 | 7 | 0.0 | 0.0 | 0.00 | 0.00 | 0.00 | 88 | 1017.4 |
| 20260504045703 | 52 | 7 | 0.0 | 0.0 | 0.00 | 0.00 | 0.00 | 88 | 1017.5 |
| 20260504045204 | 52 | 5 | 0.0 | 0.0 | 0.00 | 0.00 | 0.00 | 88 | 1017.4 |
| 20260504044702 | 52 | 5 | 0.0 | 0.0 | 0.00 | 0.00 | 0.00 | 88 | 1017.4 |
| 20260504044159 | 53 | 1 | 0.0 | 0.0 | 0.00 | 0.00 | 0.00 | 88 | 1017.3 |
| 20260504043655 | 53 | 73 | 0.0 | 0.0 | 0.00 | 0.00 | 0.00 | 88 | 1017.6 |
| 20260504043152 | 53 | 105 | 0.0 | 0.0 | 0.00 | 0.00 | 0.00 | 88 | 1017.4 |
| 20260504042650 | 52 | 40 | 0.0 | 0.0 | 0.00 | 0.00 | 0.00 | 87 | 1017.6 |
| 20260504042146 | 52 | 27 | 0.0 | 0.0 | 0.00 | 0.00 | 0.00 | 86 | 1017.5 |
| 20260504041642 | 53 | 32 | 0.0 | 0.0 | 0.00 | 0.00 | 0.00 | 86 | 1017.5 |
| 20260504041138 | 53 | 61 | 0.0 | 0.0 | 0.00 | 0.00 | 0.00 | 86 | 1017.4 |
| 20260504040636 | 52 | 104 | 0.9 | 0.9 | 0.00 | 0.00 | 0.00 | 87 | 1017.3 |
| 20260504040133 | 51 | 10 | 0.0 | 0.0 | 0.00 | 0.00 | 0.00 | 86 | 1017.3 |
| 20260504035629 | 52 | 344 | 0.0 | 0.0 | 0.00 | 0.00 | 0.00 | 85 | 1017.4 |
| 20260504035126 | 52 | 354 | 0.0 | 0.0 | 0.00 | 0.00 | 0.00 | 84 | 1017.3 |
| 20260504034624 | 52 | 341 | 0.0 | 0.0 | 0.00 | 0.00 | 0.00 | 84 | 1017.3 |
| 20260504034120 | 53 | 336 | 0.0 | 0.0 | 0.00 | 0.00 | 0.00 | 82 | 1017.4 |
| 20260504033618 | 53 | 345 | 0.0 | 0.0 | 0.00 | 0.00 | 0.00 | 82 | 1017.5 |
| 20260504033115 | 53 | 334 | 0.0 | 0.9 | 0.00 | 0.00 | 0.00 | 82 | 1017.4 |
| 20260504032612 | 54 | 293 | 0.0 | 0.0 | 0.00 | 0.00 | 0.00 | 83 | 1017.5 |
| 20260504032109 | 54 | 26 | 0.0 | 0.0 | 0.00 | 0.00 | 0.00 | 80 | 1017.5 |
| 20260504031606 | 54 | 260 | 0.0 | 0.0 | 0.00 | 0.00 | 0.00 | 82 | 1017.6 |
| 20260504031102 | 53 | 123 | 3.5 | 4.3 | 0.00 | 0.00 | 0.00 | 83 | 1017.7 |
| 20260504030559 | 54 | 123 | 0.9 | 1.7 | 0.00 | 0.00 | 0.00 | 84 | 1017.7 |
| 20260504030056 | 54 | 133 | 0.0 | 0.0 | 0.00 | 0.00 | 0.00 | 83 | 1017.8 |
| 20260504025553 | 54 | 133 | 1.7 | 1.7 | 0.00 | 0.00 | 0.00 | 82 | 1017.6 |
| 20260504025049 | 54 | 23 | 0.0 | 0.0 | 0.00 | 0.00 | 0.00 | 82 | 1017.9 |
| 20260504024547 | 54 | 132 | 2.6 | 4.3 | 0.00 | 0.00 | 0.00 | 81 | 1017.9 |
| 20260504024043 | 54 | 16 | 0.0 | 0.0 | 0.00 | 0.00 | 0.00 | 80 | 1018.0 |
| 20260504023540 | 54 | 156 | 2.6 | 4.3 | 0.00 | 0.00 | 0.00 | 81 | 1017.6 |
| 20260504023036 | 52 | 150 | 1.7 | 2.6 | 0.00 | 0.00 | 0.00 | 86 | 1017.5 |
| 20260504022532 | 50 | 344 | 0.0 | 0.0 | 0.00 | 0.00 | 0.00 | 82 | 1017.6 |
| 20260504022029 | 50 | 331 | 0.0 | 0.0 | 0.00 | 0.00 | 0.00 | 82 | 1017.6 |
| 20260504021526 | 48 | 352 | 0.0 | 0.0 | 0.00 | 0.00 | 0.00 | 77 | 1017.5 |
| 20260504021023 | 48 | 5 | 0.0 | 0.0 | 0.00 | 0.00 | 0.00 | 74 | 1017.5 |
| 20260504020520 | 48 | 9 | 0.0 | 0.0 | 0.00 | 0.00 | 0.00 | 75 | 1017.5 |
| 20260504020016 | 48 | 318 | 0.0 | 0.0 | 0.00 | 0.00 | 0.00 | 75 | 1017.4 |
| 20260504015513 | 48 | 113 | 0.9 | 0.9 | 0.00 | 0.00 | 0.00 | 74 | 1017.4 |
| 20260504015009 | 49 | 348 | 0.0 | 0.0 | 0.00 | 0.00 | 0.00 | 75 | 1017.2 |
| 20260504014505 | 49 | 345 | 0.9 | 0.9 | 0.00 | 0.00 | 0.00 | 74 | 1017.0 |
| 20260504014002 | 49 | 338 | 0.9 | 0.9 | 0.00 | 0.00 | 0.00 | 73 | 1017.1 |
| 20260504013500 | 49 | 340 | 0.9 | 0.9 | 0.00 | 0.00 | 0.00 | 73 | 1016.8 |
| 20260504012955 | 49 | 336 | 0.9 | 0.9 | 0.00 | 0.00 | 0.00 | 72 | 1016.5 |
| 20260504012454 | 49 | 342 | 0.0 | 0.0 | 0.00 | 0.00 | 0.00 | 71 | 1016.7 |
| 20260504011952 | 49 | 344 | 0.0 | 0.0 | 0.00 | 0.00 | 0.00 | 71 | 1016.6 |
| 20260504011448 | 49 | 353 | 0.0 | 0.0 | 0.00 | 0.00 | 0.00 | 71 | 1016.6 |
| 20260504010944 | 50 | 353 | 0.0 | 0.0 | 0.00 | 0.00 | 0.00 | 71 | 1016.3 |
| 20260504010440 | 50 | 346 | 0.0 | 0.0 | 0.00 | 0.00 | 0.00 | 72 | 1016.3 |
| 20260504005936 | 50 | 340 | 0.0 | 0.0 | 0.00 | 0.00 | 0.00 | 71 | 1016.2 |
| 20260504005433 | 50 | 346 | 0.0 | 0.0 | 0.00 | 0.00 | 0.00 | 71 | 1016.5 |
| 20260504004931 | 51 | 346 | 0.0 | 0.0 | 0.00 | 0.00 | 0.00 | 70 | 1016.2 |
| 20260504004428 | 51 | 344 | 0.0 | 0.0 | 0.00 | 0.00 | 0.00 | 69 | 1016.0 |
| 20260504003925 | 51 | 356 | 0.0 | 0.0 | 0.00 | 0.00 | 0.00 | 68 | 1016.0 |
| 20260504003421 | 51 | 334 | 0.9 | 0.9 | 0.00 | 0.00 | 0.00 | 68 | 1016.2 |
| 20260504002918 | 52 | 335 | 0.9 | 0.9 | 0.00 | 0.00 | 0.00 | 67 | 1015.9 |
| 20260504002415 | 52 | 351 | 0.9 | 0.9 | 0.00 | 0.00 | 0.00 | 66 | 1015.9 |
| 20260504001913 | 53 | 333 | 0.9 | 0.9 | 0.00 | 0.00 | 0.00 | 66 | 1015.9 |
| 20260504001410 | 53 | 340 | 0.9 | 0.9 | 0.00 | 0.00 | 0.00 | 66 | 1016.0 |
| 20260504000906 | 53 | 337 | 0.0 | 0.0 | 0.00 | 0.00 | 0.00 | 64 | 1015.8 |
| 20260504000404 | 54 | 339 | 0.0 | 0.0 | 0.00 | 0.00 | 0.00 | 66 | 1015.7 |
| 20260503235901 | 54 | 330 | 0.9 | 0.9 | 0.00 | 0.00 | 0.00 | 66 | 1015.8 |
| 20260503235359 | 55 | 321 | 0.9 | 0.9 | 0.00 | 0.00 | 0.00 | 65 | 1015.8 |
| 20260503234855 | 55 | 326 | 0.0 | 0.9 | 0.00 | 0.00 | 0.00 | 62 | 1015.8 |
| 20260503234353 | 56 | 321 | 0.9 | 0.9 | 0.00 | 0.00 | 0.00 | 62 | 1015.6 |
| 20260503233851 | 57 | 314 | 0.0 | 0.0 | 0.00 | 0.00 | 0.00 | 58 | 1015.5 |
| 20260503233347 | 58 | 314 | 0.0 | 0.0 | 0.00 | 0.00 | 0.00 | 57 | 1015.6 |
| 20260503232843 | 59 | 2 | 0.0 | 0.0 | 0.00 | 0.00 | 0.00 | 51 | 1015.5 |
| 20260503232341 | 59 | 71 | 0.0 | 0.0 | 0.00 | 0.00 | 0.00 | 51 | 1015.3 |
| 20260503231839 | 59 | 78 | 0.0 | 0.0 | 0.00 | 0.00 | 0.00 | 48 | 1015.6 |
| 20260503231336 | 59 | 293 | 0.0 | 0.0 | 0.00 | 0.00 | 0.00 | 50 | 1015.4 |
| 20260503230831 | 60 | 298 | 0.0 | 0.0 | 0.00 | 0.00 | 0.00 | 54 | 1015.3 |
| 20260503230329 | 61 | 297 | 0.0 | 0.0 | 0.00 | 0.00 | 0.00 | 49 | 1015.5 |
| 20260503225826 | 61 | 114 | 0.0 | 0.0 | 0.00 | 0.00 | 0.00 | 43 | 1015.2 |
| 20260503225322 | 61 | 149 | 0.0 | 0.0 | 0.00 | 0.00 | 0.00 | 43 | 1015.4 |
| 20260503224818 | 61 | 173 | 0.0 | 0.9 | 0.00 | 0.00 | 0.00 | 44 | 1015.0 |
| 20260503224316 | 62 | 305 | 0.9 | 0.9 | 0.00 | 0.00 | 0.00 | 42 | 1015.2 |
| 20260503223814 | 62 | 38 | 0.0 | 0.0 | 0.00 | 0.00 | 0.00 | 43 | 1015.3 |
| 20260503223311 | 62 | 112 | 2.6 | 2.6 | 0.00 | 0.00 | 0.00 | 39 | 1015.0 |
| 20260503222807 | 63 | 139 | 0.0 | 0.0 | 0.00 | 0.00 | 0.00 | 44 | 1015.2 |
| 20260503222306 | 63 | 260 | 0.0 | 0.0 | 0.00 | 0.00 | 0.00 | 40 | 1015.3 |
| 20260503221803 | 63 | 130 | 0.9 | 1.7 | 0.00 | 0.00 | 0.00 | 41 | 1015.1 |
| 20260503221301 | 63 | 107 | 0.0 | 0.9 | 0.00 | 0.00 | 0.00 | 40 | 1015.2 |
| 20260503220757 | 63 | 148 | 0.9 | 1.7 | 0.00 | 0.00 | 0.00 | 38 | 1015.1 |
| 20260503220254 | 63 | 137 | 1.7 | 2.6 | 0.00 | 0.00 | 0.00 | 39 | 1015.2 |
| 20260503215751 | 63 | 277 | 0.9 | 1.7 | 0.00 | 0.00 | 0.00 | 40 | 1015.3 |
| 20260503215248 | 63 | 203 | 0.0 | 0.0 | 0.00 | 0.00 | 0.00 | 41 | 1015.0 |
| 20260503214746 | 63 | 319 | 0.0 | 0.0 | 0.00 | 0.00 | 0.00 | 42 | 1015.2 |
| 20260503214242 | 63 | 56 | 0.0 | 0.0 | 0.00 | 0.00 | 0.00 | 40 | 1015.2 |
| 20260503213741 | 63 | 53 | 0.9 | 0.9 | 0.00 | 0.00 | 0.00 | 40 | 1015.1 |
| 20260503213238 | 63 | 136 | 1.7 | 1.7 | 0.00 | 0.00 | 0.00 | 40 | 1014.9 |
| 20260503212734 | 63 | 123 | 0.9 | 0.9 | 0.00 | 0.00 | 0.00 | 41 | 1015.1 |
| 20260503212232 | 64 | 126 | 0.9 | 0.9 | 0.00 | 0.00 | 0.00 | 41 | 1015.0 |
| 20260503211729 | 63 | 182 | 2.6 | 2.6 | 0.00 | 0.00 | 0.00 | 41 | 1015.0 |
| 20260503211225 | 63 | 150 | 3.5 | 4.3 | 0.00 | 0.00 | 0.00 | 40 | 1014.9 |
| 20260503210721 | 63 | 201 | 1.7 | 1.7 | 0.00 | 0.00 | 0.00 | 41 | 1015.0 |
| 20260503210219 | 64 | 22 | 0.9 | 0.9 | 0.00 | 0.00 | 0.00 | 39 | 1014.9 |
| 20260503205714 | 64 | 173 | 2.6 | 2.6 | 0.00 | 0.00 | 0.00 | 40 | 1015.0 |
| 20260503205210 | 64 | 25 | 0.9 | 0.9 | 0.00 | 0.00 | 0.00 | 41 | 1014.9 |
| 20260503204707 | 65 | 160 | 0.9 | 1.7 | 0.00 | 0.00 | 0.00 | 42 | 1015.1 |
| 20260503204204 | 64 | 340 | 0.9 | 0.9 | 0.00 | 0.00 | 0.00 | 42 | 1014.9 |
| 20260503203701 | 65 | 185 | 2.6 | 4.3 | 0.00 | 0.00 | 0.00 | 42 | 1015.0 |
| 20260503203159 | 65 | 206 | 1.7 | 1.7 | 0.00 | 0.00 | 0.00 | 39 | 1015.0 |
| 20260503202656 | 65 | 57 | 1.7 | 1.7 | 0.00 | 0.00 | 0.00 | 38 | 1015.0 |
| 20260503202154 | 66 | 66 | 0.9 | 1.7 | 0.00 | 0.00 | 0.00 | 37 | 1015.0 |
| 20260503201652 | 65 | 154 | 2.6 | 4.3 | 0.00 | 0.00 | 0.00 | 39 | 1015.1 |
| 20260503201149 | 65 | 158 | 1.7 | 1.7 | 0.00 | 0.00 | 0.00 | 40 | 1015.2 |
| 20260503200645 | 66 | 163 | 2.6 | 2.6 | 0.00 | 0.00 | 0.00 | 42 | 1015.3 |
| 20260503200141 | 65 | 325 | 0.0 | 0.9 | 0.00 | 0.00 | 0.00 | 44 | 1015.4 |
| 20260503195639 | 66 | 134 | 1.7 | 2.6 | 0.00 | 0.00 | 0.00 | 39 | 1015.5 |
| 20260503195135 | 65 | 106 | 1.7 | 1.7 | 0.00 | 0.00 | 0.00 | 41 | 1015.5 |
| 20260503194633 | 65 | 296 | 0.0 | 0.9 | 0.00 | 0.00 | 0.00 | 40 | 1015.4 |
| 20260503194128 | 65 | 298 | 2.6 | 2.6 | 0.00 | 0.00 | 0.00 | 42 | 1015.7 |
| 20260503193625 | 65 | 57 | 1.7 | 2.6 | 0.00 | 0.00 | 0.00 | 44 | 1015.6 |
| 20260503193120 | 66 | 151 | 2.6 | 4.3 | 0.00 | 0.00 | 0.00 | 43 | 1015.6 |
| 20260503192616 | 63 | 129 | 3.5 | 4.3 | 0.00 | 0.00 | 0.00 | 42 | 1015.8 |
| 20260503192112 | 64 | 140 | 2.6 | 4.3 | 0.00 | 0.00 | 0.00 | 43 | 1015.9 |
| 20260503191609 | 64 | 91 | 0.9 | 1.7 | 0.00 | 0.00 | 0.00 | 43 | 1015.8 |
| 20260503191106 | 66 | 233 | 1.7 | 1.7 | 0.00 | 0.00 | 0.00 | 44 | 1016.0 |
| 20260503190603 | 65 | 219 | 0.9 | 0.9 | 0.00 | 0.00 | 0.00 | 46 | 1016.0 |
| 20260503190100 | 63 | 302 | 0.9 | 0.9 | 0.00 | 0.00 | 0.00 | 45 | 1016.1 |
| 20260503185556 | 64 | 98 | 1.7 | 1.7 | 0.00 | 0.00 | 0.00 | 44 | 1016.1 |
| 20260503185056 | 62 | 120 | 0.9 | 0.9 | 0.00 | 0.00 | 0.00 | 43 | 1016.1 |
| 20260503184552 | 63 | 148 | 2.6 | 4.3 | 0.00 | 0.00 | 0.00 | 45 | 1016.3 |
| 20260503184049 | 64 | 22 | 0.9 | 0.9 | 0.00 | 0.00 | 0.00 | 46 | 1016.2 |
| 20260503183545 | 63 | 130 | 2.6 | 4.3 | 0.00 | 0.00 | 0.00 | 44 | 1016.2 |
| 20260503183043 | 64 | 349 | 1.7 | 2.6 | 0.00 | 0.00 | 0.00 | 43 | 1016.4 |
| 20260503182541 | 64 | 152 | 4.3 | 5.2 | 0.00 | 0.00 | 0.00 | 43 | 1016.4 |
| 20260503182039 | 63 | 7 | 0.9 | 0.9 | 0.00 | 0.00 | 0.00 | 48 | 1016.4 |
| 20260503181535 | 62 | 174 | 1.7 | 1.7 | 0.00 | 0.00 | 0.00 | 46 | 1016.6 |
| 20260503181032 | 64 | 48 | 1.7 | 1.7 | 0.00 | 0.00 | 0.00 | 44 | 1016.6 |
| 20260503180529 | 64 | 145 | 5.2 | 7.0 | 0.00 | 0.00 | 0.00 | 42 | 1016.7 |
| 20260503180026 | 62 | 132 | 1.7 | 4.3 | 0.00 | 0.00 | 0.00 | 45 | 1016.4 |
| 20260503175524 | 62 | 137 | 2.6 | 2.6 | 0.00 | 0.00 | 0.00 | 46 | 1016.6 |
| 20260503175020 | 61 | 196 | 1.7 | 2.6 | 0.00 | 0.00 | 0.00 | 46 | 1016.6 |
| 20260503174518 | 64 | 130 | 2.6 | 4.3 | 0.00 | 0.00 | 0.00 | 42 | 1016.7 |
| 20260503174014 | 62 | 131 | 0.0 | 0.0 | 0.00 | 0.00 | 0.00 | 46 | 1016.5 |
| 20260503173509 | 62 | 359 | 0.0 | 0.9 | 0.00 | 0.00 | 0.00 | 48 | 1016.6 |
| 20260503173006 | 60 | 148 | 0.9 | 2.6 | 0.00 | 0.00 | 0.00 | 49 | 1016.7 |
| 20260503172504 | 62 | 182 | 1.7 | 1.7 | 0.00 | 0.00 | 0.00 | 43 | 1016.6 |
| 20260503172001 | 62 | 252 | 0.9 | 1.7 | 0.00 | 0.00 | 0.00 | 48 | 1016.6 |
| 20260503171457 | 63 | 140 | 0.9 | 1.7 | 0.00 | 0.00 | 0.00 | 43 | 1016.7 |
| 20260503170954 | 62 | 131 | 2.6 | 2.6 | 0.00 | 0.00 | 0.00 | 46 | 1016.7 |
| 20260503170450 | 60 | 297 | 0.9 | 0.9 | 0.00 | 0.00 | 0.00 | 52 | 1016.6 |
| 20260503150843 | 59 | 91 | 2.6 | 4.3 | 0.00 | 0.00 | 0.00 | 48 | 1017.1 |
| 20260503150339 | 59 | 163 | 0.9 | 1.7 | 0.00 | 0.00 | 0.00 | 51 | 1017.0 |
| 20260503140303 | 57 | 340 | 1.7 | 1.7 | 0.00 | 0.00 | 0.00 | 57 | 1017.2 |
| 20260503131233 | 53 | 12 | 2.6 | 2.6 | 0.00 | 0.00 | 0.00 | 67 | 1016.8 |
| 20260503130730 | 53 | 32 | 0.9 | 0.9 | 0.00 | 0.00 | 0.00 | 70 | 1017.0 |
| 20260503130227 | 53 | 35 | 0.0 | 0.9 | 0.00 | 0.00 | 0.00 | 70 | 1016.7 |